Time,TemperatureF,DewpointF,PressureIn,WindDirection,WindDirectionDegrees,WindSpeedMPH,WindSpeedGustMPH,Humidity,HourlyPrecipIn,Conditions,Clouds,dailyrainin,SolarRadiationWatts/m^2,SoftwareType,DateUTC
2013-05-20 00:21:00,26.0,19.0,-100.00,East,99,0.0,0.0,74,0.00,,,0.00,0.000000,,2013-05-20 08:21:00,
2013-05-20 00:52:00,26.0,19.0,-100.00,ENE,69,0.0,0.0,75,-99.99,,,0.00,0.000000,,2013-05-20 08:52:00,
2013-05-20 01:12:00,26.0,19.0,-100.00,ENE,69,0.0,0.0,75,-99.99,,,0.00,0.000000,,2013-05-20 09:12:00,
2013-05-20 01:21:00,26.0,19.0,-100.00,ENE,69,0.0,0.0,75,-99.99,,,0.00,0.000000,,2013-05-20 09:21:00,
2013-05-20 01:32:00,26.0,19.0,-100.00,ENE,69,0.0,0.0,75,-99.99,,,0.00,0.000000,,2013-05-20 09:32:00,
2013-05-20 01:43:00,26.0,19.0,-100.00,ENE,69,0.0,0.0,75,-99.99,,,0.00,0.000000,,2013-05-20 09:43:00,
2013-05-20 01:52:00,25.0,19.0,-100.00,ESE,103,0.0,1.0,77,0.00,,,0.00,0.000000,,2013-05-20 09:52:00,
2013-05-20 02:12:00,25.0,19.0,-100.00,ESE,103,0.0,1.0,77,0.00,,,0.00,0.000000,,2013-05-20 10:12:00,
2013-05-20 02:22:00,25.0,19.0,-100.00,ESE,103,0.0,1.0,77,0.00,,,0.00,0.000000,,2013-05-20 10:22:00,
2013-05-20 02:32:00,25.0,19.0,-100.00,ESE,103,0.0,1.0,77,0.00,,,0.00,0.000000,,2013-05-20 10:32:00,
2013-05-20 02:42:00,25.0,19.0,-100.00,ESE,103,0.0,1.0,77,0.00,,,0.00,0.000000,,2013-05-20 10:42:00,
2013-05-20 03:21:00,24.0,18.0,-100.00,ENE,75,0.0,2.0,79,0.00,,,0.00,0.000000,,2013-05-20 11:21:00,
2013-05-20 03:32:00,24.0,18.0,-100.00,ENE,75,0.0,2.0,79,0.00,,,0.00,0.000000,,2013-05-20 11:32:00,
2013-05-20 03:41:00,24.0,18.0,-100.00,ENE,75,0.0,2.0,79,0.00,,,0.00,0.000000,,2013-05-20 11:41:00,
2013-05-20 03:51:00,24.0,18.0,-100.00,ENE,75,0.0,2.0,79,0.00,,,0.00,0.000000,,2013-05-20 11:51:00,
2013-05-20 04:11:00,24.0,19.0,-100.00,ESE,102,0.0,3.0,80,0.00,,,0.00,0.000000,,2013-05-20 12:11:00,
2013-05-20 04:21:00,24.0,19.0,-100.00,ESE,102,0.0,3.0,80,0.00,,,0.00,0.000000,,2013-05-20 12:21:00,
2013-05-20 04:31:00,24.0,19.0,-100.00,ESE,102,0.0,3.0,80,0.00,,,0.00,0.000000,,2013-05-20 12:31:00,
2013-05-20 04:41:00,24.0,19.0,-100.00,ESE,102,0.0,3.0,80,0.00,,,0.00,0.000000,,2013-05-20 12:41:00,
2013-05-20 04:51:00,24.0,19.0,-100.00,ESE,102,0.0,3.0,80,0.00,,,0.00,0.000000,,2013-05-20 12:51:00,
2013-05-20 05:22:00,23.0,17.0,-100.00,SE,124,0.0,4.0,79,0.00,,,0.00,0.000000,,2013-05-20 13:22:00,
2013-05-20 05:31:00,23.0,17.0,-100.00,SE,124,0.0,4.0,79,0.00,,,0.00,0.000000,,2013-05-20 13:31:00,
2013-05-20 05:41:00,23.0,17.0,-100.00,SE,124,0.0,4.0,79,0.00,,,0.00,0.000000,,2013-05-20 13:41:00,
2013-05-20 05:51:00,23.0,17.0,-100.00,SE,124,0.0,4.0,79,0.00,,,0.00,0.000000,,2013-05-20 13:51:00,
2013-05-20 05:52:00,23.0,18.0,-100.00,ESE,112,0.0,2.0,82,0.00,,,0.00,8.000000,,2013-05-20 13:52:00,
2013-05-20 06:22:00,23.0,18.0,-100.00,ESE,112,0.0,2.0,82,0.00,,,0.00,8.000000,,2013-05-20 14:22:00,
2013-05-20 06:31:00,23.0,18.0,-100.00,ESE,112,0.0,2.0,82,0.00,,,0.00,8.000000,,2013-05-20 14:31:00,
2013-05-20 06:41:00,23.0,18.0,-100.00,ESE,112,0.0,2.0,82,0.00,,,0.00,8.000000,,2013-05-20 14:41:00,
2013-05-20 06:52:00,26.0,20.0,-100.00,SE,126,0.0,2.0,79,0.00,,,0.00,34.000000,,2013-05-20 14:52:00,
2013-05-20 07:21:00,26.0,20.0,-100.00,SE,126,0.0,2.0,79,0.00,,,0.00,34.000000,,2013-05-20 15:21:00,
2013-05-20 07:33:00,26.0,20.0,-100.00,SE,126,0.0,2.0,79,0.00,,,0.00,34.000000,,2013-05-20 15:33:00,
2013-05-20 07:42:00,26.0,20.0,-100.00,SE,126,0.0,2.0,79,0.00,,,0.00,34.000000,,2013-05-20 15:42:00,
2013-05-20 07:52:00,33.0,23.0,-100.00,SE,124,1.0,2.0,66,0.00,,,0.00,71.000000,,2013-05-20 15:52:00,
2013-05-20 08:12:00,33.0,23.0,-100.00,SE,124,1.0,2.0,66,0.00,,,0.00,71.000000,,2013-05-20 16:12:00,
2013-05-20 08:22:00,33.0,23.0,-100.00,SE,124,1.0,2.0,66,0.00,,,0.00,71.000000,,2013-05-20 16:22:00,
2013-05-20 08:33:00,33.0,23.0,-100.00,SE,124,1.0,2.0,66,0.00,,,0.00,71.000000,,2013-05-20 16:33:00,
2013-05-20 08:42:00,33.0,23.0,-100.00,SE,124,1.0,2.0,66,0.00,,,0.00,71.000000,,2013-05-20 16:42:00,
2013-05-20 09:12:00,40.0,18.0,-100.00,NW,315,1.0,3.0,41,0.00,,,0.00,138.000000,,2013-05-20 17:12:00,
2013-05-20 09:52:00,45.0,21.0,-100.00,WSW,254,2.0,5.0,38,0.00,,,0.00,288.000000,,2013-05-20 17:52:00,
2013-05-20 10:12:00,45.0,21.0,-100.00,WSW,254,2.0,5.0,38,0.00,,,0.00,288.000000,,2013-05-20 18:12:00,
2013-05-20 10:23:00,45.0,21.0,-100.00,WSW,254,2.0,5.0,38,0.00,,,0.00,288.000000,,2013-05-20 18:23:00,
2013-05-20 10:32:00,45.0,21.0,-100.00,WSW,254,2.0,5.0,38,0.00,,,0.00,288.000000,,2013-05-20 18:32:00,
2013-05-20 10:41:00,45.0,21.0,-100.00,WSW,254,2.0,5.0,38,0.00,,,0.00,288.000000,,2013-05-20 18:41:00,
2013-05-20 10:52:00,47.0,23.0,-100.00,West,271,2.0,5.0,38,0.00,,,0.00,383.000000,,2013-05-20 18:52:00,
2013-05-20 11:21:00,47.0,23.0,-100.00,West,271,2.0,5.0,38,0.00,,,0.00,383.000000,,2013-05-20 19:21:00,
2013-05-20 11:32:00,47.0,23.0,-100.00,West,271,2.0,5.0,38,0.00,,,0.00,383.000000,,2013-05-20 19:32:00,
2013-05-20 11:41:00,47.0,23.0,-100.00,West,271,2.0,5.0,38,0.00,,,0.00,383.000000,,2013-05-20 19:41:00,
2013-05-20 12:52:00,49.0,25.0,-100.00,West,261,3.0,7.0,39,-99.99,,,0.00,489.000000,,2013-05-20 20:52:00,
2013-05-20 13:43:00,49.0,25.0,-100.00,West,261,3.0,7.0,39,-99.99,,,0.00,489.000000,,2013-05-20 21:43:00,
2013-05-20 13:52:00,49.0,24.0,-100.00,West,260,3.0,8.0,37,0.00,,,0.00,498.000000,,2013-05-20 21:52:00,
2013-05-20 14:12:00,49.0,24.0,-100.00,West,260,3.0,8.0,37,0.00,,,0.00,498.000000,,2013-05-20 22:12:00,
2013-05-20 14:23:00,49.0,24.0,-100.00,West,260,3.0,8.0,37,0.00,,,0.00,498.000000,,2013-05-20 22:23:00,
2013-05-20 14:33:00,49.0,24.0,-100.00,West,260,3.0,8.0,37,0.00,,,0.00,498.000000,,2013-05-20 22:33:00,
2013-05-20 14:42:00,49.0,24.0,-100.00,West,260,3.0,8.0,37,0.00,,,0.00,498.000000,,2013-05-20 22:42:00,
2013-05-20 14:52:00,48.0,29.0,-100.00,SW,234,3.0,9.0,48,0.00,,,0.00,446.000000,,2013-05-20 22:52:00,
2013-05-20 15:12:00,48.0,29.0,-100.00,SW,234,3.0,9.0,48,0.00,,,0.00,446.000000,,2013-05-20 23:12:00,
2013-05-20 15:22:00,48.0,29.0,-100.00,SW,234,3.0,9.0,48,0.00,,,0.00,446.000000,,2013-05-20 23:22:00,
2013-05-20 15:32:00,48.0,29.0,-100.00,SW,234,3.0,9.0,48,0.00,,,0.00,446.000000,,2013-05-20 23:32:00,
2013-05-20 15:42:00,48.0,29.0,-100.00,SW,234,3.0,9.0,48,0.00,,,0.00,446.000000,,2013-05-20 23:42:00,
2013-05-20 15:52:00,51.0,28.0,-100.00,SW,216,3.0,6.0,40,0.00,,,-99.99,533.000000,,2013-05-20 23:52:00,
2013-05-20 16:21:00,51.0,28.0,-100.00,SW,216,3.0,6.0,40,0.00,,,-99.99,533.000000,,2013-05-21 00:21:00,
2013-05-20 16:31:00,51.0,28.0,-100.00,SW,216,3.0,6.0,40,0.00,,,-99.99,533.000000,,2013-05-21 00:31:00,
2013-05-20 16:41:00,51.0,28.0,-100.00,SW,216,3.0,6.0,40,0.00,,,-99.99,533.000000,,2013-05-21 00:41:00,
2013-05-20 16:52:00,51.0,31.0,-100.00,SW,230,4.0,8.0,46,0.00,,,0.00,554.000000,,2013-05-21 00:52:00,
2013-05-20 17:11:00,51.0,31.0,-100.00,SW,230,4.0,8.0,46,0.00,,,0.00,554.000000,,2013-05-21 01:11:00,
2013-05-20 17:21:00,51.0,31.0,-100.00,SW,230,4.0,8.0,46,0.00,,,0.00,554.000000,,2013-05-21 01:21:00,
2013-05-20 17:32:00,51.0,31.0,-100.00,SW,230,4.0,8.0,46,0.00,,,0.00,554.000000,,2013-05-21 01:32:00,
2013-05-20 17:42:00,51.0,31.0,-100.00,SW,230,4.0,8.0,46,0.00,,,0.00,554.000000,,2013-05-21 01:42:00,
2013-05-20 17:52:00,47.0,32.0,-100.00,SW,233,4.0,9.0,56,0.00,,,0.00,315.000000,,2013-05-21 01:52:00,
2013-05-20 18:11:00,47.0,32.0,-100.00,SW,233,4.0,9.0,56,0.00,,,0.00,315.000000,,2013-05-21 02:11:00,
2013-05-20 18:21:00,47.0,32.0,-100.00,SW,233,4.0,9.0,56,0.00,,,0.00,315.000000,,2013-05-21 02:21:00,
2013-05-20 18:32:00,47.0,32.0,-100.00,SW,233,4.0,9.0,56,0.00,,,0.00,315.000000,,2013-05-21 02:32:00,
2013-05-20 18:41:00,47.0,32.0,-100.00,SW,233,4.0,9.0,56,0.00,,,0.00,315.000000,,2013-05-21 02:41:00,
2013-05-20 18:52:00,47.0,33.0,-100.00,SSW,197,3.0,11.0,57,0.00,,,0.00,191.000000,,2013-05-21 02:52:00,
2013-05-20 19:11:00,47.0,33.0,-100.00,SSW,197,3.0,11.0,57,0.00,,,0.00,191.000000,,2013-05-21 03:11:00,
2013-05-20 19:21:00,47.0,33.0,-100.00,SSW,197,3.0,11.0,57,0.00,,,0.00,191.000000,,2013-05-21 03:21:00,
2013-05-20 19:33:00,47.0,33.0,-100.00,SSW,197,3.0,11.0,57,0.00,,,0.00,191.000000,,2013-05-21 03:33:00,
2013-05-20 19:43:00,47.0,33.0,-100.00,SSW,197,3.0,11.0,57,0.00,,,0.00,191.000000,,2013-05-21 03:43:00,
2013-05-20 19:52:00,45.0,32.0,-100.00,SSW,213,3.0,10.0,60,0.00,,,0.00,138.000000,,2013-05-21 03:52:00,
2013-05-20 20:13:00,45.0,32.0,-100.00,SSW,213,3.0,10.0,60,0.00,,,0.00,138.000000,,2013-05-21 04:13:00,
2013-05-20 20:23:00,45.0,32.0,-100.00,SSW,213,3.0,10.0,60,0.00,,,0.00,138.000000,,2013-05-21 04:23:00,
2013-05-20 20:33:00,45.0,32.0,-100.00,SSW,213,3.0,10.0,60,0.00,,,0.00,138.000000,,2013-05-21 04:33:00,
2013-05-20 20:42:00,45.0,32.0,-100.00,SSW,213,3.0,10.0,60,0.00,,,0.00,138.000000,,2013-05-21 04:42:00,
2013-05-20 21:12:00,42.0,31.0,-100.00,SSW,208,3.0,10.0,64,0.00,,,0.00,124.000000,,2013-05-21 05:12:00,
2013-05-20 21:21:00,42.0,31.0,-100.00,SSW,208,3.0,10.0,64,0.00,,,0.00,124.000000,,2013-05-21 05:21:00,
2013-05-20 21:32:00,42.0,31.0,-100.00,SSW,208,3.0,10.0,64,0.00,,,0.00,124.000000,,2013-05-21 05:32:00,
2013-05-20 21:42:00,42.0,31.0,-100.00,SSW,208,3.0,10.0,64,0.00,,,0.00,124.000000,,2013-05-21 05:42:00,
2013-05-20 21:51:00,42.0,31.0,-100.00,SSW,208,3.0,10.0,64,0.00,,,0.00,124.000000,,2013-05-21 05:51:00,
2013-05-20 22:12:00,39.0,31.0,-100.00,SSW,196,2.0,6.0,72,0.00,,,0.00,33.000000,,2013-05-21 06:12:00,
2013-05-20 22:21:00,39.0,31.0,-100.00,SSW,196,2.0,6.0,72,0.00,,,0.00,33.000000,,2013-05-21 06:21:00,
2013-05-20 22:32:00,39.0,31.0,-100.00,SSW,196,2.0,6.0,72,0.00,,,0.00,33.000000,,2013-05-21 06:32:00,
2013-05-20 22:41:00,39.0,31.0,-100.00,SSW,196,2.0,6.0,72,0.00,,,0.00,33.000000,,2013-05-21 06:41:00,
2013-05-20 22:51:00,39.0,31.0,-100.00,SSW,196,2.0,6.0,72,0.00,,,0.00,33.000000,,2013-05-21 06:51:00,
2013-05-20 23:11:00,38.0,32.0,-100.00,SSE,165,0.0,3.0,80,0.00,,,0.00,7.000000,,2013-05-21 07:11:00,
2013-05-20 23:21:00,38.0,32.0,-100.00,SSE,165,0.0,3.0,80,0.00,,,0.00,7.000000,,2013-05-21 07:21:00,
2013-05-20 23:31:00,38.0,32.0,-100.00,SSE,165,0.0,3.0,80,0.00,,,0.00,7.000000,,2013-05-21 07:31:00,
2013-05-20 23:41:00,38.0,32.0,-100.00,SSE,165,0.0,3.0,80,0.00,,,0.00,7.000000,,2013-05-21 07:41:00,
2013-05-20 23:51:00,38.0,32.0,-100.00,SSE,165,0.0,3.0,80,0.00,,,0.00,7.000000,,2013-05-21 07:51:00,
2013-05-20 23:52:00,38.0,33.0,-100.00,NE,37,0.0,0.0,82,0.00,,,0.00,0.000000,,2013-05-21 07:52:00,